SCP
0 0 0 0 0 0 0 0 0 0 0 0 0 0 0 0 0 0 0 0 0 0 0 0 0 0 0 0 0 0 0 0 0 0 0 0 0 0 0 0 0 0 0
0 0 0 0 0 0 0 0 0 0 0 0 0 0 0 0 0 0 0 0 0 0 0 0 0 0 1 0 0 0 0 0 0 0 0 0 0 0 0 0 0 0 0
0 0 0 0 0 0 0 0 0 0 0 0 0 0 0 0 0 0 0 0 0 0 0 0 0 0 0 1 0 0 0 0 0 0 0 0 0 0 0 0 0 0 0
0 0 0 0 0 0 0 0 0 0 0 0 0 0 0 0 0 0 0 0 0 0 0 0 0 0 0 0 0 0 0 0 0 0 0 0 0 0 0 0 0 0 0
0 0 0 0 -0 0 0 -0 0 -0 0 -0 0 0 0 0 0 0 0 0 0 0 0 0 0 0 0 0 0 0 0 0 0 0 0 0 0 0 0 0 0 0 0
0 0 0 0 0 0 -0 -0 -0 -0 -0 -0 0 0 0 0 0 0 0 0 0 0 0 0 0 0 0 0 0 0 0 0 0 0 0 0 0 0 0 0 0 0 0
0 0 0 0 0 0 -0 -0 -0 -0 0 -0 -0 0 0 0 0 0 0 0 0 0 0 0 0 0 0 0 0 0 0 0 0 0 0 0 0 0 0 0 0 0 0
0 0 0 0 0 0 -0 -0 -0 -0 0 0 -0 -0 0 0 0 0 0 0 0 0 0 0 0 0 0 0 0 0 0 0 0 0 0 0 0 0 0 0 0 0 0
0 0 0 0 0 -0 -0 -0 -0 -0 0 0 0 0 0 0 0 0 0 0 0 0 0 0 0 0 0 0 0 0 0 0 0 0 0 0 0 0 0 0 0 0 0
0 0 0 0 0 0 0 0 -0 -0 -0 0 0 0 0 0 0 0 0 0 0 0 0 0 0 0 0 0 0 0 0 0 0 0 0 0 0 0 0 0 0 0 0
0 0 0 0 0 0 0 0 0 0 0 0 0 0 0 0 0 0 0 0 0 0 0 0 0 0 0 0 0 0 0 0 0 0 0 0 0 0 0 0 0 0 0
0 0 0 0 0 0 0 0 0 0 0 0 0 0 0 0 0 0 0 0 0 0 0 0 0 0 0 0 0 0 0 0 0 0 0 0 0 0 0 0 0 0 0
0 0 0 0 0 0 0 0 0 0 0 0 -0 0 0 0 0 0 0 0 0 0 0 0 0 0 0 0 0 0 0 0 0 0 0 0 0 0 0 0 0 0 0
0 0 0 0 0 0 0 0 0 0 0 0 -0 0 -0 0 0 0 0 0 0 0 0 0 0 0 0 0 0 0 0 0 0 0 0 0 0 0 0 0 0 0 0
0 0 0 0 0 0 0 0 0 0 0 -0 0 -0 -0 0 0 0 0 0 0 0 0 0 0 0 0 0 0 0 0 0 0 0 0 0 0 0 0 0 0 0 0
0 0 0 0 0 0 0 0 0 0 0 0 -0 -0 -0 0 0 0 0 0 0 0 0 0 0 0 0 0 0 0 0 0 0 0 0 0 0 0 0 0 0 0 0
0 0 0 0 0 0 0 0 0 0 0 0 0 -0 -0 0 0 0 0 0 0 0 0 0 0 0 0 0 0 0 0 0 0 0 0 0 0 0 0 0 0 0 0
0 0 0 0 0 0 0 0 0 0 0 0 0 0 0 0 0 0 0 0 0 0 0 0 0 0 0 0 0 0 0 0 0 0 0 0 0 0 0 0 0 0 0
0 0 0 0 0 0 0 0 0 0 0 0 0 0 0 0 0 0 0 0 0 0 0 0 0 0 0 0 0 0 0 0 0 0 0 0 0 0 0 0 0 0 0
0 0 0 0 0 0 0 0 0 0 0 0 0 0 0 0 0 0 0 0 0 0 0 0 0 0 0 0 0 0 0 0 0 0 0 0 0 0 0 0 0 0 0
0 0 0 0 0 0 0 0 0 0 0 0 0 0 0 0 0 0 0 0 0 0 0 0 0 0 0 0 0 0 0 0 0 0 0 0 0 0 0 0 0 0 0
1 0 0 0 0 0 0 0 0 0 0 0 0 0 0 0 0 0 0 0 0 0 0 0 0 0 0 0 0 0 0 0 0 0 0 0 0 0 0 0 0 0 0
1 1 1 0 0 0 0 0 0 0 0 0 0 0 0 0 0 0 0 0 0 0 0 0 0 0 0 0 0 0 0 0 0 0 0 0 0 0 0 0 0 0 0
2 1 1 0 0 0 0 0 0 0 0 0 0 0 0 0 0 0 0 0 0 0 0 0 0 0 0 0 0 0 0 0 0 0 0 0 0 0 0 0 0 0 0
1 1 1 1 1 0 0 0 0 0 0 0 0 0 0 0 0 0 0 0 0 0 0 0 0 0 0 0 0 0 0 0 0 0 0 0 0 0 0 0 0 0 0
1 1 1 1 0 0 0 0 0 0 0 0 0 0 0 0 0 0 0 0 0 0 0 0 0 0 0 0 0 0 0 0 0 0 0 0 0 0 0 0 0 0 0
Wind_Speed_500mb
17 13 8 2 2 8 9 11 13 15 15 13 11 11 9 10 10 7 8 22 13 12 12 16 16 18 19 22 23 22 21 16 15 15 12 11 10 11 12 9 8 7 7
21 13 7 3 3 7 10 13 15 16 14 13 12 13 10 8 8 7 4 18 15 18 17 16 17 17 21 26 28 26 25 22 18 18 16 13 10 10 10 10 8 9 8
20 14 9 5 4 8 13 17 17 17 14 12 13 11 6 9 9 12 11 8 14 18 19 24 24 23 21 22 25 25 29 27 21 15 15 15 14 12 9 10 9 11 11
20 15 11 7 6 12 16 17 16 13 13 10 8 10 11 12 12 14 13 12 10 9 17 13 12 16 18 21 27 31 29 30 26 21 17 16 17 16 12 12 11 12 11
22 18 12 8 10 13 16 17 20 19 15 10 8 12 15 13 12 9 11 14 12 12 12 14 13 11 11 16 19 22 29 30 28 24 19 16 19 20 16 15 13 13 13
24 19 14 10 11 14 18 20 23 23 19 13 7 5 8 11 15 13 12 13 17 15 14 15 12 11 12 16 17 21 27 29 27 27 22 20 19 21 20 18 16 14 15
27 22 16 10 10 12 17 22 22 26 26 20 8 6 4 2 17 10 10 15 21 17 17 18 14 12 11 19 20 22 24 22 28 25 21 20 19 16 21 20 18 16 16
30 24 18 12 9 12 17 22 25 18 29 33 10 7 2 3 11 6 10 15 23 16 19 18 17 14 9 11 19 21 22 25 25 32 26 22 22 19 16 21 22 19 18
33 27 22 15 10 11 13 19 23 24 17 27 31 13 6 9 14 6 14 15 25 16 19 19 22 17 13 13 13 20 20 23 25 27 34 27 23 22 19 18 24 21 18
38 33 26 18 12 10 8 14 19 24 21 18 15 23 20 13 10 8 12 18 25 20 25 17 14 18 18 14 17 20 20 21 24 27 31 32 31 26 23 18 20 22 20
45 38 30 22 15 10 6 10 15 18 22 17 15 13 17 11 16 11 13 24 23 16 17 14 21 15 17 18 19 21 22 24 27 31 31 34 34 33 25 23 17 22 22
53 45 36 27 19 11 4 6 10 16 18 20 17 17 14 12 16 15 22 25 27 26 18 15 14 17 13 22 25 27 27 29 29 30 33 34 37 33 35 27 14 21 24
58 53 43 33 22 14 7 2 8 14 19 19 20 12 14 12 15 18 24 30 32 27 19 12 19 15 17 29 31 33 32 34 33 32 31 34 33 36 39 28 18 20 24
60 57 48 37 27 19 12 4 5 11 15 17 22 21 12 13 14 17 22 29 36 31 21 32 22 16 26 34 41 34 33 36 35 35 34 32 35 34 37 40 25 23 23
57 60 53 41 31 23 16 9 4 6 11 18 22 27 18 14 15 18 19 20 24 33 35 30 28 33 37 37 36 39 37 40 33 37 36 36 35 41 34 40 26 24 26
69 62 55 46 35 28 21 15 8 3 10 14 16 27 28 17 20 19 21 22 23 29 41 37 39 42 45 43 39 42 38 38 35 32 37 36 34 34 39 33 34 25 30
78 64 58 49 39 31 26 19 15 6 5 14 24 29 33 30 20 23 24 24 27 30 42 44 41 41 44 45 40 40 40 38 32 37 36 38 35 33 41 42 40 35 30
80 69 61 52 43 35 31 25 18 9 6 14 23 32 33 29 34 30 26 30 32 33 38 48 43 43 41 39 40 44 38 36 35 34 43 35 35 32 38 44 46 37 32
82 75 66 57 49 41 37 30 22 16 14 19 26 34 42 45 41 34 40 36 32 34 37 44 50 45 43 38 39 36 38 36 28 36 38 30 31 31 31 43 47 42 37
77 76 68 59 51 44 43 36 30 22 19 24 31 41 50 52 47 45 43 42 35 39 42 46 49 51 46 41 41 37 33 29 42 27 32 28 28 30 32 42 49 41 37
79 76 68 62 56 52 49 42 34 24 24 29 36 44 53 60 53 50 48 47 51 49 43 47 50 48 45 39 39 39 41 39 34 33 30 27 26 28 32 44 49 42 33
84 81 73 66 60 57 52 44 34 30 30 33 39 48 55 61 56 57 56 54 55 56 54 45 45 45 45 41 35 35 38 34 32 26 16 21 23 22 29 44 46 39 35
94 89 79 67 63 58 56 45 35 35 34 38 45 54 60 41 58 49 48 58 57 54 55 49 49 44 42 35 34 34 38 35 37 30 31 23 24 19 28 42 41 38 30
101 91 81 68 63 56 54 46 35 38 39 42 51 58 59 59 57 57 56 57 52 53 45 46 44 43 43 42 36 34 39 43 42 41 33 27 29 22 27 39 43 39 32
85 83 69 63 54 60 50 41 38 38 41 46 53 56 61 64 63 56 53 57 55 50 38 49 50 50 52 49 46 47 39 39 42 30 30 36 34 29 27 31 40 39 33
64 56 53 53 52 50 44 41 37 40 45 49 50 54 59 57 55 45 51 55 56 44 38 39 43 49 54 50 48 48 44 41 41 36 33 37 42 34 25 31 37 43 41
Wind_Direction_500mb
194 186 201 185 28 10 6 3 353 353 347 342 335 325 315 316 312 301 298 292 279 283 279 267 265 268 277 285 280 289 297 293 309 315 310 316 330 342 348 343 330 316 309
183 187 168 134 52 29 23 15 360 3 357 352 341 336 339 350 356 10 352 316 301 278 277 278 277 273 284 283 278 274 280 288 290 304 302 295 299 313 333 331 317 304 295
180 170 160 143 83 47 33 20 16 7 2 1 347 346 19 58 41 47 49 54 356 330 285 279 278 279 283 285 279 276 272 281 286 293 298 288 282 288 306 310 306 299 295
172 167 164 143 87 50 36 30 27 13 9 13 25 66 74 80 67 54 48 47 38 28 355 343 325 292 280 278 284 285 279 271 272 280 282 277 272 273 282 290 294 291 283
174 173 165 137 84 58 44 42 36 40 18 38 42 74 86 84 59 30 35 28 10 6 1 343 346 348 328 303 287 277 274 280 269 276 277 277 268 264 269 275 278 281 279
178 174 166 138 89 59 49 49 49 45 42 59 78 94 113 89 51 30 35 20 1 348 336 314 321 324 307 306 302 274 274 276 269 274 279 281 273 262 260 262 265 271 270
184 177 165 137 95 67 54 47 48 50 44 54 54 48 132 351 5 49 35 12 5 356 350 340 331 309 322 317 289 286 279 279 263 266 276 291 289 291 257 254 258 261 265
187 179 171 160 118 77 55 47 49 47 46 47 54 44 36 337 347 31 21 11 1 2 351 349 346 336 322 339 303 294 288 280 273 262 268 269 284 287 282 262 257 257 260
190 187 183 173 133 101 62 43 43 53 45 44 52 57 13 11 358 333 359 2 6 7 4 355 349 350 342 350 340 304 295 284 280 269 262 264 270 277 273 286 259 258 257
195 194 191 181 152 135 84 51 43 43 58 50 28 38 48 51 20 0 354 356 358 356 352 1 352 348 342 342 323 311 304 283 270 268 269 263 251 267 268 275 269 258 254
201 199 195 188 175 154 99 52 40 44 42 52 50 39 24 12 16 343 338 341 347 342 347 335 348 348 335 334 325 307 296 292 280 272 271 265 258 257 260 256 271 262 249
206 202 198 196 188 171 141 49 35 37 36 38 33 36 29 19 354 345 337 341 342 332 327 331 334 341 343 340 326 307 294 288 286 283 277 270 259 256 251 253 270 264 246
206 207 202 201 194 188 185 106 35 30 31 29 33 25 14 353 350 340 340 333 335 340 338 325 320 324 328 333 321 311 294 280 279 279 278 272 263 252 249 242 239 252 243
207 209 206 203 198 196 196 177 53 37 26 18 18 10 2 337 343 337 332 331 332 331 338 316 329 313 318 323 329 315 300 289 273 272 276 270 255 250 257 237 235 240 233
204 210 206 204 200 202 201 187 138 57 30 22 9 7 359 335 336 328 320 320 315 314 321 316 325 316 313 316 315 315 304 295 285 268 267 270 263 250 254 252 235 237 225
209 207 205 204 202 204 204 192 183 120 29 16 11 356 355 334 328 319 314 309 301 296 296 300 305 307 310 313 314 314 311 301 302 281 265 264 265 250 238 249 234 227 225
215 209 208 207 204 206 207 202 198 194 18 358 358 354 351 336 320 318 309 305 303 300 293 297 300 305 302 311 309 309 315 308 303 302 273 261 262 250 244 240 238 223 224
215 212 209 207 206 208 212 211 208 222 297 329 339 343 341 330 321 317 312 303 301 299 295 300 307 309 305 303 297 307 309 307 299 292 289 267 258 250 242 244 232 225 219
213 210 208 209 209 210 212 214 219 237 277 306 322 329 333 328 321 313 311 308 305 299 298 300 303 307 304 304 295 305 302 304 307 274 277 275 257 245 243 235 226 223 214
215 211 210 210 210 212 215 216 226 239 272 297 311 321 325 325 320 315 310 307 305 302 301 301 302 303 304 304 304 308 304 293 293 283 301 271 260 245 245 228 224 230 225
219 217 213 211 209 215 216 217 227 241 269 292 306 316 319 320 316 309 306 303 300 300 295 297 298 298 299 297 298 304 296 293 298 295 284 267 263 247 232 218 219 220 208
220 216 213 211 212 215 215 219 229 250 270 289 304 311 314 318 315 311 308 306 303 300 296 291 290 290 294 297 299 292 293 301 297 287 304 273 256 241 232 219 219 225 215
212 215 212 208 213 213 219 220 233 255 273 291 302 308 313 306 303 300 300 304 303 303 296 289 282 284 289 298 293 290 286 284 282 267 288 291 256 234 228 223 221 226 227
206 204 206 207 210 214 218 226 242 261 279 292 300 305 306 305 301 300 299 294 290 289 282 286 285 284 283 290 292 283 278 272 280 268 261 273 261 252 230 219 221 226 230
197 200 201 202 199 217 221 235 251 270 281 290 296 301 303 301 297 299 291 289 289 291 282 282 288 288 285 284 282 281 275 269 271 266 249 249 254 249 240 227 221 220 231
188 188 189 196 199 218 227 241 256 269 284 293 294 298 296 296 295 299 295 294 292 292 283 278 283 290 294 296 288 274 271 257 260 265 239 231 240 242 249 237 223 217 225
Wind_Speed_850mb
17 13 8 2 2 8 9 11 13 15 15 13 11 11 9 10 10 7 8 22 13 12 12 16 16 18 19 22 23 22 21 16 15 15 12 11 10 11 12 9 8 7 7
21 13 7 3 3 7 10 13 15 16 14 13 12 13 10 8 8 7 4 18 15 18 17 16 17 17 21 26 28 26 25 22 18 18 16 13 10 10 10 10 8 9 8
20 14 9 5 4 8 13 17 17 17 14 12 13 11 6 9 9 12 11 8 14 18 19 24 24 23 21 22 25 25 29 27 21 15 15 15 14 12 9 10 9 11 11
20 15 11 7 6 12 16 17 16 13 13 10 8 10 11 12 12 14 13 12 10 9 17 13 12 16 18 21 27 31 29 30 26 21 17 16 17 16 12 12 11 12 11
22 18 12 8 10 13 16 17 20 19 15 10 8 12 15 13 12 9 11 14 12 12 12 14 13 11 11 16 19 22 29 30 28 24 19 16 19 20 16 15 13 13 13
24 19 14 10 11 14 18 20 23 23 19 13 7 5 8 11 15 13 12 13 17 15 14 15 12 11 12 16 17 21 27 29 27 27 22 20 19 21 20 18 16 14 15
27 22 16 10 10 12 17 22 22 26 26 20 8 6 4 2 17 10 10 15 21 17 17 18 14 12 11 19 20 22 24 22 28 25 21 20 19 16 21 20 18 16 16
30 24 18 12 9 12 17 22 25 18 29 33 10 7 2 3 11 6 10 15 23 16 19 18 17 14 9 11 19 21 22 25 25 32 26 22 22 19 16 21 22 19 18
33 27 22 15 10 11 13 19 23 24 17 27 31 13 6 9 14 6 14 15 25 16 19 19 22 17 13 13 13 20 20 23 25 27 34 27 23 22 19 18 24 21 18
38 33 26 18 12 10 8 14 19 24 21 18 15 23 20 13 10 8 12 18 25 20 25 17 14 18 18 14 17 20 20 21 24 27 31 32 31 26 23 18 20 22 20
45 38 30 22 15 10 6 10 15 18 22 17 15 13 17 11 16 11 13 24 23 16 17 14 21 15 17 18 19 21 22 24 27 31 31 34 34 33 25 23 17 22 22
53 45 36 27 19 11 4 6 10 16 18 20 17 17 14 12 16 15 22 25 27 26 18 15 14 17 13 22 25 27 27 29 29 30 33 34 37 33 35 27 14 21 24
58 53 43 33 22 14 7 2 8 14 19 19 20 12 14 12 15 18 24 30 32 27 19 12 19 15 17 29 31 33 32 34 33 32 31 34 33 36 39 28 18 20 24
60 57 48 37 27 19 12 4 5 11 15 17 22 21 12 13 14 17 22 29 36 31 21 32 22 16 26 34 41 34 33 36 35 35 34 32 35 34 37 40 25 23 23
57 60 53 41 31 23 16 9 4 6 11 18 22 27 18 14 15 18 19 20 24 33 35 30 28 33 37 37 36 39 37 40 33 37 36 36 35 41 34 40 26 24 26
69 62 55 46 35 28 21 15 8 3 10 14 16 27 28 17 20 19 21 22 23 29 41 37 39 42 45 43 39 42 38 38 35 32 37 36 34 34 39 33 34 25 30
78 64 58 49 39 31 26 19 15 6 5 14 24 29 33 30 20 23 24 24 27 30 42 44 41 41 44 45 40 40 40 38 32 37 36 38 35 33 41 42 40 35 30
80 69 61 52 43 35 31 25 18 9 6 14 23 32 33 29 34 30 26 30 32 33 38 48 43 43 41 39 40 44 38 36 35 34 43 35 35 32 38 44 46 37 32
82 75 66 57 49 41 37 30 22 16 14 19 26 34 42 45 41 34 40 36 32 34 37 44 50 45 43 38 39 36 38 36 28 36 38 30 31 31 31 43 47 42 37
77 76 68 59 51 44 43 36 30 22 19 24 31 41 50 52 47 45 43 42 35 39 42 46 49 51 46 41 41 37 33 29 42 27 32 28 28 30 32 42 49 41 37
79 76 68 62 56 52 49 42 34 24 24 29 36 44 53 60 53 50 48 47 51 49 43 47 50 48 45 39 39 39 41 39 34 33 30 27 26 28 32 44 49 42 33
84 81 73 66 60 57 52 44 34 30 30 33 39 48 55 61 56 57 56 54 55 56 54 45 45 45 45 41 35 35 38 34 32 26 16 21 23 22 29 44 46 39 35
94 89 79 67 63 58 56 45 35 35 34 38 45 54 60 41 58 49 48 58 57 54 55 49 49 44 42 35 34 34 38 35 37 30 31 23 24 19 28 42 41 38 30
101 91 81 68 63 56 54 46 35 38 39 42 51 58 59 59 57 57 56 57 52 53 45 46 44 43 43 42 36 34 39 43 42 41 33 27 29 22 27 39 43 39 32
85 83 69 63 54 60 50 41 38 38 41 46 53 56 61 64 63 56 53 57 55 50 38 49 50 50 52 49 46 47 39 39 42 30 30 36 34 29 27 31 40 39 33
64 56 53 53 52 50 44 41 37 40 45 49 50 54 59 57 55 45 51 55 56 44 38 39 43 49 54 50 48 48 44 41 41 36 33 37 42 34 25 31 37 43 41
Wind_Direction_850mb
194 186 201 185 28 10 6 3 353 353 347 342 335 325 315 316 312 301 298 292 279 283 279 267 265 268 277 285 280 289 297 293 309 315 310 316 330 342 348 343 330 316 309
183 187 168 134 52 29 23 15 360 3 357 352 341 336 339 350 356 10 352 316 301 278 277 278 277 273 284 283 278 274 280 288 290 304 302 295 299 313 333 331 317 304 295
180 170 160 143 83 47 33 20 16 7 2 1 347 346 19 58 41 47 49 54 356 330 285 279 278 279 283 285 279 276 272 281 286 293 298 288 282 288 306 310 306 299 295
172 167 164 143 87 50 36 30 27 13 9 13 25 66 74 80 67 54 48 47 38 28 355 343 325 292 280 278 284 285 279 271 272 280 282 277 272 273 282 290 294 291 283
174 173 165 137 84 58 44 42 36 40 18 38 42 74 86 84 59 30 35 28 10 6 1 343 346 348 328 303 287 277 274 280 269 276 277 277 268 264 269 275 278 281 279
178 174 166 138 89 59 49 49 49 45 42 59 78 94 113 89 51 30 35 20 1 348 336 314 321 324 307 306 302 274 274 276 269 274 279 281 273 262 260 262 265 271 270
184 177 165 137 95 67 54 47 48 50 44 54 54 48 132 351 5 49 35 12 5 356 350 340 331 309 322 317 289 286 279 279 263 266 276 291 289 291 257 254 258 261 265
187 179 171 160 118 77 55 47 49 47 46 47 54 44 36 337 347 31 21 11 1 2 351 349 346 336 322 339 303 294 288 280 273 262 268 269 284 287 282 262 257 257 260
190 187 183 173 133 101 62 43 43 53 45 44 52 57 13 11 358 333 359 2 6 7 4 355 349 350 342 350 340 304 295 284 280 269 262 264 270 277 273 286 259 258 257
195 194 191 181 152 135 84 51 43 43 58 50 28 38 48 51 20 0 354 356 358 356 352 1 352 348 342 342 323 311 304 283 270 268 269 263 251 267 268 275 269 258 254
201 199 195 188 175 154 99 52 40 44 42 52 50 39 24 12 16 343 338 341 347 342 347 335 348 348 335 334 325 307 296 292 280 272 271 265 258 257 260 256 271 262 249
206 202 198 196 188 171 141 49 35 37 36 38 33 36 29 19 354 345 337 341 342 332 327 331 334 341 343 340 326 307 294 288 286 283 277 270 259 256 251 253 270 264 246
206 207 202 201 194 188 185 106 35 30 31 29 33 25 14 353 350 340 340 333 335 340 338 325 320 324 328 333 321 311 294 280 279 279 278 272 263 252 249 242 239 252 243
207 209 206 203 198 196 196 177 53 37 26 18 18 10 2 337 343 337 332 331 332 331 338 316 329 313 318 323 329 315 300 289 273 272 276 270 255 250 257 237 235 240 233
204 210 206 204 200 202 201 187 138 57 30 22 9 7 359 335 336 328 320 320 315 314 321 316 325 316 313 316 315 315 304 295 285 268 267 270 263 250 254 252 235 237 225
209 207 205 204 202 204 204 192 183 120 29 16 11 356 355 334 328 319 314 309 301 296 296 300 305 307 310 313 314 314 311 301 302 281 265 264 265 250 238 249 234 227 225
215 209 208 207 204 206 207 202 198 194 18 358 358 354 351 336 320 318 309 305 303 300 293 297 300 305 302 311 309 309 315 308 303 302 273 261 262 250 244 240 238 223 224
215 212 209 207 206 208 212 211 208 222 297 329 339 343 341 330 321 317 312 303 301 299 295 300 307 309 305 303 297 307 309 307 299 292 289 267 258 250 242 244 232 225 219
213 210 208 209 209 210 212 214 219 237 277 306 322 329 333 328 321 313 311 308 305 299 298 300 303 307 304 304 295 305 302 304 307 274 277 275 257 245 243 235 226 223 214
215 211 210 210 210 212 215 216 226 239 272 297 311 321 325 325 320 315 310 307 305 302 301 301 302 303 304 304 304 308 304 293 293 283 301 271 260 245 245 228 224 230 225
219 217 213 211 209 215 216 217 227 241 269 292 306 316 319 320 316 309 306 303 300 300 295 297 298 298 299 297 298 304 296 293 298 295 284 267 263 247 232 218 219 220 208
220 216 213 211 212 215 215 219 229 250 270 289 304 311 314 318 315 311 308 306 303 300 296 291 290 290 294 297 299 292 293 301 297 287 304 273 256 241 232 219 219 225 215
212 215 212 208 213 213 219 220 233 255 273 291 302 308 313 306 303 300 300 304 303 303 296 289 282 284 289 298 293 290 286 284 282 267 288 291 256 234 228 223 221 226 227
206 204 206 207 210 214 218 226 242 261 279 292 300 305 306 305 301 300 299 294 290 289 282 286 285 284 283 290 292 283 278 272 280 268 261 273 261 252 230 219 221 226 230
197 200 201 202 199 217 221 235 251 270 281 290 296 301 303 301 297 299 291 289 289 291 282 282 288 288 285 284 282 281 275 269 271 266 249 249 254 249 240 227 221 220 231
188 188 189 196 199 218 227 241 256 269 284 293 294 298 296 296 295 299 295 294 292 292 283 278 283 290 294 296 288 274 271 257 260 265 239 231 240 242 249 237 223 217 225